TimePDT,TemperatureF,Dew PointF,Humidity,Sea Level PressureIn,VisibilityMPH,Wind Direction,Wind SpeedMPH,Gust SpeedMPH,PrecipitationIn,Events,Conditions,WindDirDegrees,DateUTC
12:53 AM,53.1,50.0,89,30.01,10.0,Calm,Calm,-,N/A,,Overcast,0,2013-05-26 07:53:00
1:53 AM,51.1,48.9,92,29.99,10.0,Calm,Calm,-,0.00,,Overcast,0,2013-05-26 08:53:00
2:53 AM,52.0,48.9,89,29.99,10.0,Calm,Calm,-,0.00,,Overcast,0,2013-05-26 09:53:00
3:53 AM,52.0,50.0,93,29.99,8.0,Calm,Calm,-,0.00,Rain,Light Rain,0,2013-05-26 10:53:00
4:21 AM,51.8,50.0,94,29.96,6.0,Calm,Calm,-,0.01,Rain,Light Rain,0,2013-05-26 11:21:00
4:30 AM,51.8,50.0,94,29.96,6.0,North,3.5,-,0.02,Rain,Light Rain,10,2013-05-26 11:30:00
4:53 AM,51.1,48.9,92,29.99,5.0,Calm,Calm,-,0.03,Rain,Light Rain,0,2013-05-26 11:53:00
5:53 AM,50.0,48.9,96,29.99,4.0,Calm,Calm,-,0.06,Rain,Light Rain,0,2013-05-26 12:53:00
6:53 AM,50.0,48.9,96,29.99,4.0,North,4.6,-,0.08,Rain,Light Rain,350,2013-05-26 13:53:00
7:16 AM,50.0,48.2,94,29.97,4.0,North,4.6,-,0.04,Rain,Light Rain,10,2013-05-26 14:16:00
7:53 AM,50.0,48.9,96,30.00,5.0,NNE,4.6,-,0.09,Rain,Light Rain,30,2013-05-26 14:53:00
8:35 AM,50.0,48.2,94,29.98,6.0,NE,3.5,-,0.05,Rain,Light Rain,40,2013-05-26 15:35:00
8:53 AM,50.0,48.9,96,30.00,5.0,NNE,4.6,-,0.08,Rain,Light Rain,20,2013-05-26 15:53:00
9:53 AM,52.0,50.0,93,30.01,5.0,Calm,Calm,-,0.04,Rain,Light Rain,0,2013-05-26 16:53:00
10:53 AM,54.0,51.1,90,30.01,5.0,Calm,Calm,-,0.02,Rain,Light Rain,0,2013-05-26 17:53:00
11:44 AM,55.4,51.8,88,29.99,5.0,South,3.5,-,0.02,Rain,Light Rain,170,2013-05-26 18:44:00
11:53 AM,55.0,52.0,89,30.01,5.0,Calm,Calm,-,0.02,Rain,Light Rain,0,2013-05-26 18:53:00
12:53 PM,55.0,52.0,89,30.02,5.0,South,4.6,-,0.03,Rain,Light Rain,170,2013-05-26 19:53:00
1:53 PM,55.9,52.0,87,30.02,6.0,Calm,Calm,-,0.01,,Overcast,0,2013-05-26 20:53:00
2:19 PM,57.2,53.6,88,29.99,6.0,Calm,Calm,-,N/A,,Overcast,0,2013-05-26 21:19:00
2:41 PM,57.2,51.8,82,29.99,6.0,Calm,Calm,-,N/A,,Haze,0,2013-05-26 21:41:00
2:53 PM,57.9,52.0,81,30.01,6.0,Calm,Calm,-,N/A,,Haze,0,2013-05-26 21:53:00
3:00 PM,57.2,51.8,82,29.99,10.0,Calm,Calm,-,N/A,,Overcast,0,2013-05-26 22:00:00
3:53 PM,57.0,52.0,83,30.01,10.0,NNE,3.5,-,N/A,,Overcast,30,2013-05-26 22:53:00
4:53 PM,57.9,52.0,81,30.01,10.0,NNE,5.8,-,N/A,,Overcast,30,2013-05-26 23:53:00
5:00 PM,57.2,51.8,82,29.99,10.0,NNE,4.6,-,N/A,,Overcast,30,2013-05-27 00:00:00
5:53 PM,59.0,53.1,81,30.01,10.0,NNE,3.5,-,N/A,,Overcast,20,2013-05-27 00:53:00
6:53 PM,57.9,52.0,81,30.00,10.0,NNE,6.9,-,N/A,,Overcast,30,2013-05-27 01:53:00
7:53 PM,55.9,52.0,87,29.99,10.0,North,3.5,-,N/A,,Overcast,10,2013-05-27 02:53:00
8:53 PM,55.0,52.0,89,29.99,9.0,NNE,4.6,-,0.00,Rain,Light Rain,20,2013-05-27 03:53:00
9:19 PM,53.6,51.8,94,29.96,8.0,NNE,3.5,-,0.03,Rain,Light Rain,20,2013-05-27 04:19:00
9:42 PM,53.6,51.8,94,29.96,10.0,NNE,3.5,-,0.03,,Overcast,20,2013-05-27 04:42:00
9:53 PM,54.0,52.0,93,29.99,10.0,NNE,3.5,-,0.03,,Overcast,20,2013-05-27 04:53:00
10:08 PM,53.6,51.8,94,29.96,10.0,North,4.6,-,N/A,,Overcast,10,2013-05-27 05:08:00
10:22 PM,53.6,51.8,94,29.96,10.0,NE,3.5,-,N/A,,Overcast,40,2013-05-27 05:22:00
10:53 PM,53.1,51.1,93,29.98,10.0,NNE,3.5,-,N/A,,Overcast,20,2013-05-27 05:53:00
11:53 PM,53.1,51.1,93,29.97,10.0,Calm,Calm,-,N/A,,Overcast,0,2013-05-27 06:53:00